Weather in Constantine

Algeria     36°21′17″N   6°37′20″E
temp.,
°C
wind,
m/s
gust,
m/s
humid.,
%
clouds,
%
prec.,
mm/h
press.,
hPa
HPBL,
m
9 may, sun
sun901:00+16sse225940 0.0 101711
04:00+15s225438 0.0 101611
07:00+18ssw335487 0.0 101658
10:00+23sw4536100 0.0 1016996
13:00+27sw3322100 0.0 10141968
16:00+28ssw2218100 0.0 10122806
19:00+22wnw11412 0.0 101312
22:00+17wsw22390 0.0 101511
10 may, mon
mon1001:00+16sse22400 0.0 101411
04:00+15s22420 0.0 101211
07:00+20s11415 0.0 101326
10:00+24ene11275 0.0 1012649
13:00+29ne15212 0.0 10102654
16:00+24nne76485 0.0 1010638
19:00+19nne44720 0.0 1011238
22:00+15ne33860 0.0 101251
11 may, tue
tue1101:00+12nnw239730 0.0 101275
04:00+14nnw2391100 0.0 1014289
07:00+15nw248670 0.1 1015322
10:00+18n225582 0.0 10161358
13:00+18n436093 0.0 1016758
16:00+18n4361100 0.0 1016843
19:00+14n4461100 0.0 1018380
22:00+10nnw22840 0.0 102011
12 may, wed
wed1201:00+9nw22930 0.0 102011
04:00+7ssw11960 0.0 102010
07:00+10sw11790 0.0 1020143
10:00+16sw12340 0.0 1019900
13:00+21wnw35220 0.0 10171647
16:00+22n55250 0.0 10151397
19:00+16nne34470 0.0 101652
22:00+11ne116012 0.0 101810
13 may, thu
thu1301:00+10ene11630 0.0 101710
04:00+9nne11640 0.0 101610
07:00+13ssw11490 0.0 101780
10:00+19w12370 0.0 1016978
13:00+22nw35313 0.0 10142075
16:00+24nnw35295 0.0 10122086
19:00+17n34580 0.0 101385
22:00+13ene11740 0.0 101511